Location: Namasale
(1.5000°N, 32.6167°E)
Time: 20:20:49
(UTC+00:00)

Envisat - Visible Passes

Search period start: 03 December 2021 00:00
Search period end: 13 December 2021 00:00
Orbit: 764 x 766 km, 98.2° (Epoch: 03 December)

Date Brightness Start Highest point End Pass type
(mag) Time Alt. Az. Time Alt. Az. Time Alt. Az.
03 Dec 5.9 01:26:10 10° ENE 01:28:50 14° ESE 01:31:31 10° SE visible
03 Dec 3.7 03:03:06 10° NNW 03:07:34 32° WNW 03:12:04 10° SW visible
04 Dec 3.0 02:25:45 10° NNE 02:30:49 87° E 02:35:55 10° S visible
05 Dec 4.9 01:49:40 10° NE 01:54:03 30° ESE 01:58:27 10° SSE visible
06 Dec 3.3 02:51:15 10° N 02:56:03 45° WNW 03:00:53 10° SSW visible
07 Dec 3.4 02:14:18 10° NNE 02:19:17 63° ESE 02:24:19 10° S visible
08 Dec 5.4 01:38:41 10° NE 01:42:32 22° ESE 01:46:23 10° SSE visible
08 Dec 4.1 03:17:27 10° NNW 03:21:16 22° WNW 03:25:06 10° SW visible
09 Dec 3.0 02:39:31 10° N 02:44:31 62° WNW 02:49:32 10° SSW visible
10 Dec 4.1 02:02:56 10° NNE 02:07:46 45° ESE 02:12:35 10° S visible
11 Dec 5.8 01:27:59 10° ENE 01:31:01 16° ESE 01:34:01 10° SE visible
11 Dec 3.8 03:05:23 10° NNW 03:09:45 30° WNW 03:14:08 10° SW visible
12 Dec 2.9 02:27:55 10° N 02:33:00 86° WNW 02:38:05 10° SSW visible
